Location: Newark
(16.3678°N, 77.8722°E)
Time: 22:04:04
(UTC+00:00)

S-56A Canister/Altair - Pass Details

Date: 17 December 2019
Orbit: 634 x 2498 km, 38.9° (Epoch: 18 January)

Event Time Altitude Azimuth Distance (km) Brightness Sun altitude
Rises 10:36:59 0° 303° (WNW) 6,110 12.4 20.7°
Reaches altitude 10° 10:41:16 10° 300° (WNW) 4,986 12.1 19.8°
Maximum altitude 10:54:45 60° 225° (SW) 2,130 10.6 17.1°
Drops below altitude 10° 11:04:11 10° 147° (SSE) 3,572 11.0 15.2°
Sets 11:06:46 0° 143° (SE) 4,324 11.3 14.6°
